owner,sensor,date,latitude,longitude,vertical_datum,wind_speed,wind_to_direction,wind_speed_of_gust,qcFlag 
TABS,ioos:station:wmo:42045:1,2013-07-01T00:00:00Z,26.2168,-96.4998,4.0,1.718196729,190.3945106,2.15,'11111222,11111222,11111222' 
TABS,ioos:station:wmo:42045:1,2013-07-01T00:30:00Z,26.2168,-96.4998,4.0,1.451654229,199.3088382,2.07,'11111222,11111222,11111222' 
TABS,ioos:station:wmo:42045:1,2013-07-01T01:00:00Z,26.2168,-96.4998,4.0,1.592136929,206.0823825,1.95,'11111222,11111222,11111222' 
TABS,ioos:station:wmo:42045:1,2013-07-01T01:30:00Z,26.2168,-96.4998,4.0,2.390753019,178.5621281,2.71,'11111222,11111222,11111222' 
TABS,ioos:station:wmo:42045:1,2013-07-01T02:00:00Z,26.2168,-96.4998,4.0,2.625452342,189.4266335,3.07,'11111222,11111222,11111222' 
TABS,ioos:station:wmo:42045:1,2013-07-01T02:30:00Z,26.2168,-96.4998,4.0,3.173279061,185.2436677,3.81,'11111222,11111222,11111222' 
TABS,ioos:station:wmo:42045:1,2013-07-01T03:00:00Z,26.2168,-96.4998,4.0,3.909501247,185.725373,4.56,'11111222,11111222,11111222' 
TABS,ioos:station:wmo:42045:1,2013-07-01T03:30:00Z,26.2168,-96.4998,4.0,4.87483333,265.5291896,5.48,'11111222,11111222,11111222' 
TABS,ioos:station:wmo:42045:1,2013-07-01T04:00:00Z,26.2168,-96.4998,4.0,3.334576435,232.0648255,4.56,'11111222,11111222,11111222' 
TABS,ioos:station:wmo:42045:1,2013-07-01T04:30:00Z,26.2168,-96.4998,4.0,2.951694429,218.8115037,3.33,'11111222,11111222,11111222' 
TABS,ioos:station:wmo:42045:1,2013-07-01T05:00:00Z,26.2168,-96.4998,4.0,3.091035425,226.4420252,3.49,'11111222,11111222,11111222' 
TABS,ioos:station:wmo:42045:1,2013-07-01T05:30:00Z,26.2168,-96.4998,4.0,4.21773636,211.9191218,4.88,'11111222,11111222,11111222' 
TABS,ioos:station:wmo:42045:1,2013-07-01T06:00:00Z,26.2168,-96.4998,4.0,4.520011062,216.996782,5.39,'11111222,11111222,11111222' 
TABS,ioos:station:wmo:42045:1,2013-07-01T06:30:00Z,26.2168,-96.4998,4.0,4.414181691,223.3478044,5.47,'11111222,11111222,11111222' 
TABS,ioos:station:wmo:42045:1,2013-07-01T07:00:00Z,26.2168,-96.4998,4.0,4.73381453,219.1703016,5.59,'11111222,11111222,11111222' 
TABS,ioos:station:wmo:42045:1,2013-07-01T07:30:00Z,26.2168,-96.4998,4.0,4.677317607,227.1660791,5.4,'11111222,11111222,11111222' 
TABS,ioos:station:wmo:42045:1,2013-07-01T08:00:00Z,26.2168,-96.4998,4.0,5.154609588,234.953425,6.2,'11111222,11111222,11111222' 
TABS,ioos:station:wmo:42045:1,2013-07-01T08:30:00Z,26.2168,-96.4998,4.0,5.252294737,237.9137493,6.07,'11111222,11111222,11111222' 
TABS,ioos:station:wmo:42045:1,2013-07-01T09:00:00Z,26.2168,-96.4998,4.0,5.192157548,243.3363105,5.83,'11111222,11111222,11111222' 
TABS,ioos:station:wmo:42045:1,2013-07-01T09:30:00Z,26.2168,-96.4998,4.0,4.873817805,252.5688738,5.5,'11111222,11111222,11111222' 
TABS,ioos:station:wmo:42045:1,2013-07-01T10:00:00Z,26.2168,-96.4998,4.0,4.869907597,251.5650943,5.46,'11111222,11111222,11111222' 
TABS,ioos:station:wmo:42045:1,2013-07-01T10:30:00Z,26.2168,-96.4998,4.0,4.102596739,263.9836981,5.09,'11111222,11111222,11111222' 
TABS,ioos:station:wmo:42045:1,2013-07-01T11:00:00Z,26.2168,-96.4998,4.0,2.944316559,264.3475097,3.47,'11111222,11111222,11111222' 
TABS,ioos:station:wmo:42045:1,2013-07-01T11:30:00Z,26.2168,-96.4998,4.0,2.541830049,283.6535164,2.99,'11111222,11111222,11111222' 
TABS,ioos:station:wmo:42045:1,2013-07-01T12:00:00Z,26.2168,-96.4998,4.0,2.555660384,294.2583554,2.97,'11111222,11111222,11111222' 
TABS,ioos:station:wmo:42045:1,2013-07-01T12:30:00Z,26.2168,-96.4998,4.0,2.001424493,316.01208,2.37,'11111222,11111222,11111222' 
TABS,ioos:station:wmo:42045:1,2013-07-01T13:00:00Z,26.2168,-96.4998,4.0,2.567586415,329.8397992,2.93,'11111222,11111222,11111222' 
TABS,ioos:station:wmo:42045:1,2013-07-01T13:30:00Z,26.2168,-96.4998,4.0,2.095065631,330.8655655,2.47,'11111222,11111222,11111222' 
TABS,ioos:station:wmo:42045:1,2013-07-01T14:00:00Z,26.2168,-96.4998,4.0,2.349553149,329.2870336,2.75,'11111222,11111222,11111222' 
TABS,ioos:station:wmo:42045:1,2013-07-01T14:30:00Z,26.2168,-96.4998,4.0,1.186970935,309.187426,1.4,'11111222,11111222,11111222' 
TABS,ioos:station:wmo:42045:1,2013-07-01T15:00:00Z,26.2168,-96.4998,4.0,0.806535802,287.3116056,1.04,'11111222,11111222,11111222' 
TABS,ioos:station:wmo:42045:1,2013-07-01T15:30:00Z,26.2168,-96.4998,4.0,0.836301381,228.8786207,1.23,'11111222,11111222,11111222' 
TABS,ioos:station:wmo:42045:1,2013-07-01T16:00:00Z,26.2168,-96.4998,4.0,0.346554469,226.1692418,0.66,'11111222,11111222,11111222' 
TABS,ioos:station:wmo:42045:1,2013-07-01T16:30:00Z,26.2168,-96.4998,4.0,0.431740663,103.3928874,1.04,'11111222,11111222,11111222' 
TABS,ioos:station:wmo:42045:1,2013-07-01T17:00:00Z,26.2168,-96.4998,4.0,1.374408964,175.409678,2.23,'11111222,11111222,11111222' 
TABS,ioos:station:wmo:42045:1,2013-07-01T17:30:00Z,26.2168,-96.4998,4.0,2.089042843,215.0595554,3.18,'11111222,11111222,11111222' 
TABS,ioos:station:wmo:42045:1,2013-07-01T18:00:00Z,26.2168,-96.4998,4.0,2.326907819,195.7088116,2.96,'11111222,11111222,11111222' 
TABS,ioos:station:wmo:42045:1,2013-07-01T18:30:00Z,26.2168,-96.4998,4.0,1.810414317,224.1049336,2.53,'11111222,11111222,11111222' 
TABS,ioos:station:wmo:42045:1,2013-07-01T19:00:00Z,26.2168,-96.4998,4.0,2.024672813,236.074551,2.88,'11111222,11111222,11111222' 
TABS,ioos:station:wmo:42045:1,2013-07-01T19:30:00Z,26.2168,-96.4998,4.0,2.174488446,235.8715327,2.83,'11111222,11111222,11111222' 
TABS,ioos:station:wmo:42045:1,2013-07-01T20:00:00Z,26.2168,-96.4998,4.0,1.870721786,263.8627584,2.54,'11111222,11111222,11111222' 
TABS,ioos:station:wmo:42045:1,2013-07-01T20:30:00Z,26.2168,-96.4998,4.0,1.387407655,283.3350752,2.21,'11111222,11111222,11111222' 
TABS,ioos:station:wmo:42045:1,2013-07-01T21:00:00Z,26.2168,-96.4998,4.0,1.734041522,307.2663148,2.55,'11111222,11111222,11111222' 
TABS,ioos:station:wmo:42045:1,2013-07-01T21:30:00Z,26.2168,-96.4998,4.0,1.195700631,330.4332832,1.91,'11111222,11111222,11111222' 
TABS,ioos:station:wmo:42045:1,2013-07-01T22:00:00Z,26.2168,-96.4998,4.0,1.118302285,12.91757218,1.88,'11111222,11111222,11111222' 
TABS,ioos:station:wmo:42045:1,2013-07-01T22:30:00Z,26.2168,-96.4998,4.0,1.943630623,29.59834596,2.79,'11111222,11111222,11111222' 
TABS,ioos:station:wmo:42045:1,2013-07-01T23:00:00Z,26.2168,-96.4998,4.0,1.60863296,41.21912462,2.13,'11111222,11111222,11111222' 
TABS,ioos:station:wmo:42045:1,2013-07-01T23:30:00Z,26.2168,-96.4998,4.0,2.6346347,25.39762641,3.53,'11111222,11111222,11111222' 
TABS,ioos:station:wmo:42045:1,2013-07-02T00:00:00Z,26.2168,-96.4998,4.0,2.449693858,29.59954932,3.08,'11111222,11111222,11111222' 
TABS,ioos:station:wmo:42045:1,2013-07-02T00:30:00Z,26.2168,-96.4998,4.0,2.715308454,34.04092187,3.53,'11111222,11111222,11111222' 
TABS,ioos:station:wmo:42045:1,2013-07-02T01:00:00Z,26.2168,-96.4998,4.0,2.266318601,48.21917168,2.99,'11111222,11111222,11111222' 
TABS,ioos:station:wmo:42045:1,2013-07-02T01:30:00Z,26.2168,-96.4998,4.0,2.779946043,39.0135771,3.44,'11111222,11111222,11111222' 
TABS,ioos:station:wmo:42045:1,2013-07-02T02:00:00Z,26.2168,-96.4998,4.0,3.18804015,53.4173218,3.79,'11111222,11111222,11111222' 
TABS,ioos:station:wmo:42045:1,2013-07-02T02:30:00Z,26.2168,-96.4998,4.0,2.937481915,83.74556096,3.92,'11111222,11111222,11111222' 
TABS,ioos:station:wmo:42045:1,2013-07-02T03:00:00Z,26.2168,-96.4998,4.0,2.571478174,116.56541,3.02,'11111222,11111222,11111222' 
TABS,ioos:station:wmo:42045:1,2013-07-02T03:30:00Z,26.2168,-96.4998,4.0,3.072002604,126.7956287,3.65,'11111222,11111222,11111222' 
TABS,ioos:station:wmo:42045:1,2013-07-02T04:00:00Z,26.2168,-96.4998,4.0,3.040411156,131.1330669,3.51,'11111222,11111222,11111222' 
TABS,ioos:station:wmo:42045:1,2013-07-02T04:30:00Z,26.2168,-96.4998,4.0,3.500185709,134.8845671,3.96,'11111222,11111222,11111222' 
TABS,ioos:station:wmo:42045:1,2013-07-02T05:00:00Z,26.2168,-96.4998,4.0,2.838045102,132.5727768,3.26,'11111222,11111222,11111222' 
TABS,ioos:station:wmo:42045:1,2013-07-02T05:30:00Z,26.2168,-96.4998,4.0,1.946535384,118.5403394,2.29,'11111222,11111222,11111222' 
TABS,ioos:station:wmo:42045:1,2013-07-02T06:00:00Z,26.2168,-96.4998,4.0,1.790670266,100.6200514,2.22,'11111222,11111222,11111222' 
TABS,ioos:station:wmo:42045:1,2013-07-02T06:30:00Z,26.2168,-96.4998,4.0,1.318976876,107.1989219,1.58,'11111222,11111222,11111222' 
TABS,ioos:station:wmo:42045:1,2013-07-02T07:00:00Z,26.2168,-96.4998,4.0,0.941753683,131.9875352,1.24,'11111222,11111222,11111222' 
TABS,ioos:station:wmo:42045:1,2013-07-02T07:30:00Z,26.2168,-96.4998,4.0,0.822192192,175.8153041,1.07,'11111222,11111222,11111222' 
TABS,ioos:station:wmo:42045:1,2013-07-02T08:00:00Z,26.2168,-96.4998,4.0,0.559732079,221.378629,0.89,'11111222,11111222,11111222' 
TABS,ioos:station:wmo:42045:1,2013-07-02T08:30:00Z,26.2168,-96.4998,4.0,1.25,249.3903553,1.7,'11111222,11111222,11111222' 
TABS,ioos:station:wmo:42045:1,2013-07-02T09:00:00Z,26.2168,-96.4998,4.0,1.953458472,280.6196304,2.59,'11111222,11111222,11111222' 
TABS,ioos:station:wmo:42045:1,2013-07-02T09:30:00Z,26.2168,-96.4998,4.0,2.084706214,266.1493702,2.71,'11111222,11111222,11111222' 
TABS,ioos:station:wmo:42045:1,2013-07-02T10:00:00Z,26.2168,-96.4998,4.0,2.073861133,317.5403562,2.89,'11111222,11111222,11111222' 
TABS,ioos:station:wmo:42045:1,2013-07-02T10:30:00Z,26.2168,-96.4998,4.0,3.448042923,349.472028,4.08,'11111222,11111222,11111222' 
TABS,ioos:station:wmo:42045:1,2013-07-02T11:00:00Z,26.2168,-96.4998,4.0,7.410377858,153.6426881,10.83,'11111222,11111222,11111222' 
TABS,ioos:station:wmo:42045:1,2013-07-02T11:30:00Z,26.2168,-96.4998,4.0,6.604619595,188.6210368,7.83,'11111222,11111222,11111222' 
TABS,ioos:station:wmo:42045:1,2013-07-02T12:00:00Z,26.2168,-96.4998,4.0,6.615474284,189.2204578,7.83,'11111222,11111222,11111222' 
TABS,ioos:station:wmo:42045:1,2013-07-02T12:30:00Z,26.2168,-96.4998,4.0,5.260769906,201.6397744,6.32,'11111222,11111222,11111222' 
TABS,ioos:station:wmo:42045:1,2013-07-02T13:00:00Z,26.2168,-96.4998,4.0,3.594356688,200.3509815,4.44,'11111222,11111222,11111222' 
TABS,ioos:station:wmo:42045:1,2013-07-02T13:30:00Z,26.2168,-96.4998,4.0,2.921386657,133.4746422,3.53,'11111222,11111222,11111222' 
TABS,ioos:station:wmo:42045:1,2013-07-02T14:00:00Z,26.2168,-96.4998,4.0,2.961418579,138.5595742,3.58,'11111222,11111222,11111222' 
TABS,ioos:station:wmo:42045:1,2013-07-02T14:30:00Z,26.2168,-96.4998,4.0,0.452769257,353.6596126,0.84,'11111222,11111222,11111222' 
TABS,ioos:station:wmo:42045:1,2013-07-02T15:00:00Z,26.2168,-96.4998,4.0,1.449965517,335.5558919,1.91,'11111222,11111222,11111222' 
TABS,ioos:station:wmo:42045:1,2013-07-02T15:30:00Z,26.2168,-96.4998,4.0,2.246619683,326.804936,3.08,'11111222,11111222,11111222' 
TABS,ioos:station:wmo:42045:1,2013-07-02T16:00:00Z,26.2168,-96.4998,4.0,3.800328933,322.3761315,4.24,'11111222,11111222,11111222' 
TABS,ioos:station:wmo:42045:1,2013-07-02T16:30:00Z,26.2168,-96.4998,4.0,3.434020967,322.9297612,4.2,'11111222,11111222,11111222' 
TABS,ioos:station:wmo:42045:1,2013-07-02T17:00:00Z,26.2168,-96.4998,4.0,2.979345566,336.8770077,3.64,'11111222,11111222,11111222' 
TABS,ioos:station:wmo:42045:1,2013-07-02T17:30:00Z,26.2168,-96.4998,4.0,3.238904136,4.249242205,3.87,'11111222,11111222,11111222' 
TABS,ioos:station:wmo:42045:1,2013-07-02T18:00:00Z,26.2168,-96.4998,4.0,4.581288028,11.45685872,5.28,'11111222,11111222,11111222' 
TABS,ioos:station:wmo:42045:1,2013-07-02T18:30:00Z,26.2168,-96.4998,4.0,4.459293666,20.75128289,5.17,'11111222,11111222,11111222' 
TABS,ioos:station:wmo:42045:1,2013-07-02T19:00:00Z,26.2168,-96.4998,4.0,4.530971198,13.26924129,5.21,'11111222,11111222,11111222' 
TABS,ioos:station:wmo:42045:1,2013-07-02T19:30:00Z,26.2168,-96.4998,4.0,3.986477142,20.25299397,4.73,'11111222,11111222,11111222' 
TABS,ioos:station:wmo:42045:1,2013-07-02T20:00:00Z,26.2168,-96.4998,4.0,4.498910979,16.66239968,5.24,'11111222,11111222,11111222' 
TABS,ioos:station:wmo:42045:1,2013-07-02T20:30:00Z,26.2168,-96.4998,4.0,4.249529386,14.72273017,4.92,'11111222,11111222,11111222' 
TABS,ioos:station:wmo:42045:1,2013-07-02T21:00:00Z,26.2168,-96.4998,4.0,4.766655012,7.109880136,5.49,'11111222,11111222,11111222' 
TABS,ioos:station:wmo:42045:1,2013-07-02T21:30:00Z,26.2168,-96.4998,4.0,4.445998201,14.72363995,5.08,'11111222,11111222,11111222' 
TABS,ioos:station:wmo:42045:1,2013-07-02T22:00:00Z,26.2168,-96.4998,4.0,4.604172021,29.68286031,5.41,'11111222,11111222,11111222' 
TABS,ioos:station:wmo:42045:1,2013-07-02T22:30:00Z,26.2168,-96.4998,4.0,3.92562097,39.9360793,4.8,'11111222,11111222,11111222' 
TABS,ioos:station:wmo:42045:1,2013-07-02T23:00:00Z,26.2168,-96.4998,4.0,3.948189458,42.94695567,4.76,'11111222,11111222,11111222' 
TABS,ioos:station:wmo:42045:1,2013-07-02T23:30:00Z,26.2168,-96.4998,4.0,4.213525839,29.42414031,5.09,'11111222,11111222,11111222' 
TABS,ioos:station:wmo:42045:1,2013-07-03T00:00:00Z,26.2168,-96.4998,4.0,4.204806773,33.16067787,4.81,'11111222,11111222,11111222' 
TABS,ioos:station:wmo:42045:1,2013-07-03T00:30:00Z,26.2168,-96.4998,4.0,3.748186228,38.82661922,4.54,'11111222,11111222,11111222' 
TABS,ioos:station:wmo:42045:1,2013-07-03T01:00:00Z,26.2168,-96.4998,4.0,3.168122472,44.23237779,3.73,'11111222,11111222,11111222' 
TABS,ioos:station:wmo:42045:1,2013-07-03T01:30:00Z,26.2168,-96.4998,4.0,3.158686436,50.00830312,3.96,'11111222,11111222,11111222' 
TABS,ioos:station:wmo:42045:1,2013-07-03T02:00:00Z,26.2168,-96.4998,4.0,2.841214529,61.63059913,3.6,'11111222,11111222,11111222' 
TABS,ioos:station:wmo:42045:1,2013-07-03T02:30:00Z,26.2168,-96.4998,4.0,2.725949376,86.2134759,3.32,'11111222,11111222,11111222' 
TABS,ioos:station:wmo:42045:1,2013-07-03T03:00:00Z,26.2168,-96.4998,4.0,2.973213749,95.40419964,3.44,'11111222,11111222,11111222' 
TABS,ioos:station:wmo:42045:1,2013-07-03T03:30:00Z,26.2168,-96.4998,4.0,2.813058833,98.79301865,3.37,'11111222,11111222,11111222' 
TABS,ioos:station:wmo:42045:1,2013-07-03T04:00:00Z,26.2168,-96.4998,4.0,2.523568901,108.0045404,3.07,'11111222,11111222,11111222' 
TABS,ioos:station:wmo:42045:1,2013-07-03T04:30:00Z,26.2168,-96.4998,4.0,3.024979339,105.1392184,3.58,'11111222,11111222,11111222' 
TABS,ioos:station:wmo:42045:1,2013-07-03T05:00:00Z,26.2168,-96.4998,4.0,3.448854882,117.8285334,4.17,'11111222,11111222,11111222' 
TABS,ioos:station:wmo:42045:1,2013-07-03T05:30:00Z,26.2168,-96.4998,4.0,3.826604239,121.8628872,4.53,'11111222,11111222,11111222' 
TABS,ioos:station:wmo:42045:1,2013-07-03T06:00:00Z,26.2168,-96.4998,4.0,4.044317,131.692688,4.9,'11111222,11111222,11111222' 
TABS,ioos:station:wmo:42045:1,2013-07-03T06:30:00Z,26.2168,-96.4998,4.0,3.736642878,139.2326959,4.36,'11111222,11111222,11111222' 
TABS,ioos:station:wmo:42045:1,2013-07-03T07:00:00Z,26.2168,-96.4998,4.0,3.484207227,145.1699335,4.22,'11111222,11111222,11111222' 
TABS,ioos:station:wmo:42045:1,2013-07-03T07:30:00Z,26.2168,-96.4998,4.0,2.530612574,162.9973976,3.28,'11111222,11111222,11111222' 
TABS,ioos:station:wmo:42045:1,2013-07-03T08:00:00Z,26.2168,-96.4998,4.0,2.241182723,152.063133,2.93,'11111222,11111222,11111222' 
TABS,ioos:station:wmo:42045:1,2013-07-03T08:30:00Z,26.2168,-96.4998,4.0,1.689615341,173.8847212,2.41,'11111222,11111222,11111222' 
TABS,ioos:station:wmo:42045:1,2013-07-03T09:00:00Z,26.2168,-96.4998,4.0,0.842911621,184.763841,1.35,'11111222,11111222,11111222' 
TABS,ioos:station:wmo:42045:1,2013-07-03T09:30:00Z,26.2168,-96.4998,4.0,0.156204994,230.194522,0.65,'11111222,11111222,11111222' 
TABS,ioos:station:wmo:42045:1,2013-07-03T10:00:00Z,26.2168,-96.4998,4.0,0.642806347,275.3558125,1.02,'11111222,11111222,11111222' 
TABS,ioos:station:wmo:42045:1,2013-07-03T10:30:00Z,26.2168,-96.4998,4.0,1.134636506,292.2702158,1.58,'11111222,11111222,11111222' 
TABS,ioos:station:wmo:42045:1,2013-07-03T11:00:00Z,26.2168,-96.4998,4.0,1.315028517,320.8637531,1.82,'11111222,11111222,11111222' 
TABS,ioos:station:wmo:42045:1,2013-07-03T11:30:00Z,26.2168,-96.4998,4.0,1.857229119,343.4187805,2.44,'11111222,11111222,11111222' 
TABS,ioos:station:wmo:42045:1,2013-07-03T12:00:00Z,26.2168,-96.4998,4.0,2.262763797,353.9112756,3.05,'11111222,11111222,11111222' 
TABS,ioos:station:wmo:42045:1,2013-07-03T12:30:00Z,26.2168,-96.4998,4.0,2.398853893,349.6736041,2.89,'11111222,11111222,11111222' 
TABS,ioos:station:wmo:42045:1,2013-07-03T13:00:00Z,26.2168,-96.4998,4.0,2.254284809,8.417427034,2.96,'11111222,11111222,11111222' 
TABS,ioos:station:wmo:42045:1,2013-07-03T13:30:00Z,26.2168,-96.4998,4.0,2.604092932,350.7183463,3.2,'11111222,11111222,11111222' 
TABS,ioos:station:wmo:42045:1,2013-07-03T14:00:00Z,26.2168,-96.4998,4.0,2.995062604,354.2511396,3.47,'11111222,11111222,11111222' 
TABS,ioos:station:wmo:42045:1,2013-07-03T14:30:00Z,26.2168,-96.4998,4.0,3.111269837,351.8697062,4.21,'11111222,11111222,11111222' 
TABS,ioos:station:wmo:42045:1,2013-07-03T15:00:00Z,26.2168,-96.4998,4.0,3.006958596,8.992206946,3.75,'11111222,11111222,11111222' 
TABS,ioos:station:wmo:42045:1,2013-07-03T15:30:00Z,26.2168,-96.4998,4.0,2.758296576,12.77640443,3.68,'11111222,11111222,11111222' 
TABS,ioos:station:wmo:42045:1,2013-07-03T16:00:00Z,26.2168,-96.4998,4.0,2.815137652,19.72202119,3.65,'11111222,11111222,11111222' 
TABS,ioos:station:wmo:42045:1,2013-07-03T16:30:00Z,26.2168,-96.4998,4.0,2.780017986,22.41350304,3.62,'11111222,11111222,11111222' 
TABS,ioos:station:wmo:42045:1,2013-07-03T17:00:00Z,26.2168,-96.4998,4.0,2.823118843,22.93183635,3.45,'11111222,11111222,11111222' 
TABS,ioos:station:wmo:42045:1,2013-07-03T17:30:00Z,26.2168,-96.4998,4.0,2.960135132,17.70017594,4.08,'11111222,11111222,11111222' 
TABS,ioos:station:wmo:42045:1,2013-07-03T18:00:00Z,26.2168,-96.4998,4.0,3.373796082,30.06056671,4.13,'11111222,11111222,11111222' 
TABS,ioos:station:wmo:42045:1,2013-07-03T18:30:00Z,26.2168,-96.4998,4.0,2.950406752,18.37328516,4.19,'11111222,11111222,11111222' 
TABS,ioos:station:wmo:42045:1,2013-07-03T19:00:00Z,26.2168,-96.4998,4.0,2.083386666,38.96015645,3.25,'11111222,11111222,11111222' 
TABS,ioos:station:wmo:42045:1,2013-07-03T19:30:00Z,26.2168,-96.4998,4.0,2.95832723,37.721806,3.65,'11111222,11111222,11111222' 
TABS,ioos:station:wmo:42045:1,2013-07-03T20:00:00Z,26.2168,-96.4998,4.0,3.339176545,31.40487977,4.13,'11111222,11111222,11111222' 
TABS,ioos:station:wmo:42045:1,2013-07-03T20:30:00Z,26.2168,-96.4998,4.0,3.318508701,30.81542323,4.23,'11111222,11111222,11111222' 
TABS,ioos:station:wmo:42045:1,2013-07-03T21:00:00Z,26.2168,-96.4998,4.0,3.225926224,43.24115986,4.43,'11111222,11111222,11111222' 
TABS,ioos:station:wmo:42045:1,2013-07-03T21:30:00Z,26.2168,-96.4998,4.0,3.608268283,52.43107491,4.62,'11111222,11111222,11111222' 
TABS,ioos:station:wmo:42045:1,2013-07-03T22:00:00Z,26.2168,-96.4998,4.0,3.534176,57.47872693,4.61,'11111222,11111222,11111222' 
TABS,ioos:station:wmo:42045:1,2013-07-03T22:30:00Z,26.2168,-96.4998,4.0,4.322001851,75.80260667,5.95,'11111222,11111222,11111222' 
TABS,ioos:station:wmo:42045:1,2013-07-03T23:00:00Z,26.2168,-96.4998,4.0,4.535835094,87.0930245,5.42,'11111222,11111222,11111222' 
TABS,ioos:station:wmo:42045:1,2013-07-03T23:30:00Z,26.2168,-96.4998,4.0,4.792045492,88.32544392,6.09,'11111222,11111222,11111222' 
TABS,ioos:station:wmo:42045:1,2013-07-04T00:00:00Z,26.2168,-96.4998,4.0,4.210997507,100.5364692,5.31,'11111222,11111222,11111222' 
TABS,ioos:station:wmo:42045:1,2013-07-04T00:30:00Z,26.2168,-96.4998,4.0,4.280186912,89.46412135,4.93,'11111222,11111222,11111222' 
TABS,ioos:station:wmo:42045:1,2013-07-04T01:00:00Z,26.2168,-96.4998,4.0,4.613220133,82.1505267,5.6,'11111222,11111222,11111222' 
TABS,ioos:station:wmo:42045:1,2013-07-04T01:30:00Z,26.2168,-96.4998,4.0,5.093181717,87.97425094,6.18,'11111222,11111222,11111222' 
TABS,ioos:station:wmo:42045:1,2013-07-04T02:00:00Z,26.2168,-96.4998,4.0,4.848680233,93.42932504,5.93,'11111222,11111222,11111222' 
TABS,ioos:station:wmo:42045:1,2013-07-04T02:30:00Z,26.2168,-96.4998,4.0,4.96847059,98.79916774,5.68,'11111222,11111222,11111222' 
TABS,ioos:station:wmo:42045:1,2013-07-04T03:00:00Z,26.2168,-96.4998,4.0,4.233414697,102.6906778,5.11,'11111222,11111222,11111222' 
TABS,ioos:station:wmo:42045:1,2013-07-04T03:30:00Z,26.2168,-96.4998,4.0,5.017459517,99.40640157,5.8,'11111222,11111222,11111222' 
TABS,ioos:station:wmo:42045:1,2013-07-04T04:00:00Z,26.2168,-96.4998,4.0,4.591263443,103.7339632,5.37,'11111222,11111222,11111222' 
TABS,ioos:station:wmo:42045:1,2013-07-04T04:30:00Z,26.2168,-96.4998,4.0,5.201932333,105.6129329,6.11,'11111222,11111222,11111222' 
TABS,ioos:station:wmo:42045:1,2013-07-04T05:00:00Z,26.2168,-96.4998,4.0,4.465982535,105.1879914,5.21,'11111222,11111222,11111222' 
TABS,ioos:station:wmo:42045:1,2013-07-04T05:30:00Z,26.2168,-96.4998,4.0,3.751826222,106.889782,4.61,'11111222,11111222,11111222' 
TABS,ioos:station:wmo:42045:1,2013-07-04T06:00:00Z,26.2168,-96.4998,4.0,3.398823326,116.56541,4.05,'11111222,11111222,11111222' 
TABS,ioos:station:wmo:42045:1,2013-07-04T06:30:00Z,26.2168,-96.4998,4.0,3.560126402,127.3530494,4.17,'11111222,11111222,11111222' 
TABS,ioos:station:wmo:42045:1,2013-07-04T07:00:00Z,26.2168,-96.4998,4.0,3.762047315,134.3541516,4.65,'11111222,11111222,11111222' 
TABS,ioos:station:wmo:42045:1,2013-07-04T07:30:00Z,26.2168,-96.4998,4.0,3.671648131,138.9758601,4.52,'11111222,11111222,11111222' 
TABS,ioos:station:wmo:42045:1,2013-07-04T08:00:00Z,26.2168,-96.4998,4.0,2.998166106,146.1512148,3.6,'11111222,11111222,11111222' 
TABS,ioos:station:wmo:42045:1,2013-07-04T08:30:00Z,26.2168,-96.4998,4.0,2.453079697,155.9429173,2.92,'11111222,11111222,11111222' 
TABS,ioos:station:wmo:42045:1,2013-07-04T09:00:00Z,26.2168,-96.4998,4.0,2.46,167.3198566,3.02,'11111222,11111222,11111222' 
TABS,ioos:station:wmo:42045:1,2013-07-04T09:30:00Z,26.2168,-96.4998,4.0,1.425622671,145.8643502,2.18,'11111222,11111222,11111222' 
TABS,ioos:station:wmo:42045:1,2013-07-04T10:00:00Z,26.2168,-96.4998,4.0,2.131783291,168.6375946,2.84,'11111222,11111222,11111222' 
TABS,ioos:station:wmo:42045:1,2013-07-04T10:30:00Z,26.2168,-96.4998,4.0,2.3401923,143.8649183,2.88,'11111222,11111222,11111222' 
TABS,ioos:station:wmo:42045:1,2013-07-04T11:00:00Z,26.2168,-96.4998,4.0,1.638566447,119.2247718,2.19,'11111222,11111222,11111222' 
TABS,ioos:station:wmo:42045:1,2013-07-04T11:30:00Z,26.2168,-96.4998,4.0,1.637467557,105.2248153,2.1,'11111222,11111222,11111222' 
TABS,ioos:station:wmo:42045:1,2013-07-04T12:00:00Z,26.2168,-96.4998,4.0,1.501366045,103.4812792,2.31,'11111222,11111222,11111222' 
TABS,ioos:station:wmo:42045:1,2013-07-04T12:30:00Z,26.2168,-96.4998,4.0,1.214989712,84.80516232,1.98,'11111222,11111222,11111222' 
TABS,ioos:station:wmo:42045:1,2013-07-04T13:00:00Z,26.2168,-96.4998,4.0,1.079675877,105.5813083,1.46,'11111222,11111222,11111222' 
TABS,ioos:station:wmo:42045:1,2013-07-04T13:30:00Z,26.2168,-96.4998,4.0,0.891571646,113.1145748,1.51,'11111222,11111222,11111222' 
TABS,ioos:station:wmo:42045:1,2013-07-04T14:00:00Z,26.2168,-96.4998,4.0,1.46860478,119.3581058,2.07,'11111222,11111222,11111222' 
TABS,ioos:station:wmo:42045:1,2013-07-04T14:30:00Z,26.2168,-96.4998,4.0,1.377679208,129.6994016,1.95,'11111222,11111222,11111222' 
TABS,ioos:station:wmo:42045:1,2013-07-04T15:00:00Z,26.2168,-96.4998,4.0,1.095627674,111.4133403,1.68,'11111222,11111222,11111222' 
TABS,ioos:station:wmo:42045:1,2013-07-04T15:30:00Z,26.2168,-96.4998,4.0,0.290688837,93.94559792,0.69,'11111222,11111222,11111222' 
TABS,ioos:station:wmo:42045:1,2013-07-04T16:00:00Z,26.2168,-96.4998,4.0,0.586003413,53.32531517,1.02,'11111222,11111222,11111222' 
TABS,ioos:station:wmo:42045:1,2013-07-04T16:30:00Z,26.2168,-96.4998,4.0,0.87,43.60250655,1.3,'11111222,11111222,11111222' 
TABS,ioos:station:wmo:42045:1,2013-07-04T17:00:00Z,26.2168,-96.4998,4.0,1.140394669,26.5647786,1.56,'11111222,11111222,11111222' 
TABS,ioos:station:wmo:42045:1,2013-07-04T17:30:00Z,26.2168,-96.4998,4.0,1.608788364,30.23052032,2.33,'11111222,11111222,11111222' 
TABS,ioos:station:wmo:42045:1,2013-07-04T18:00:00Z,26.2168,-96.4998,4.0,2.422932108,14.09335317,3.06,'11111222,11111222,11111222' 
TABS,ioos:station:wmo:42045:1,2013-07-04T18:30:00Z,26.2168,-96.4998,4.0,2.123134475,20.39786084,2.68,'11111222,11111222,11111222' 
TABS,ioos:station:wmo:42045:1,2013-07-04T19:00:00Z,26.2168,-96.4998,4.0,2.071545317,24.8328246,2.78,'11111222,11111222,11111222' 